Location: Smithers
(54.7670°N, 127.1670°W)
Time: 23:59:17
(UTC-07:00)

Daily predictions for brighter satellites

Satellite Brightness Start Highest point End
(mag) Time Altitude Azimuth Time Altitude Azimuth Time Altitude Azimuth
SPOT 5 3.3 22:32:18 10° S 22:37:40 76° WSW 22:43:00 10° NNW
Cosmos 158 Rocket 3.9 22:32:44 10° NNW 22:37:43 89° ENE 22:42:37 10° SSE
GEOS 3 Rocket 4.0 22:33:21 10° SSE 22:38:27 58° SW 22:43:41 10° NW
Gbstr 26 Del rocket 3.1 22:33:48 10° WSW 22:38:34 56° S 22:42:33 10° E
Cosmos 1048 Rocket 4.1 22:33:42 10° NNW 22:39:07 89° ENE 22:44:26 10° SSE
YAOGAN 11 4.4 22:35:28 10° S 22:40:02 72° WSW 22:44:35 10° NNW
Terra 2.2 22:37:06 10° SE 22:41:44 53° ENE 22:46:23 10° N
Cosmos 1674 Rocket 4.3 22:40:42 10° N 22:44:50 40° ENE 22:48:55 10° SE
ATLAS 3B R/B 3.2 22:37:35 10° WSW 22:44:56 74° NW 22:51:56 10° NE
CARTOSAT-1 3.9 22:42:57 10° SSE 22:47:11 56° ENE 22:51:27 10° N
Cosmos 2251 Rocket 4.3 22:43:47 10° NNW 22:48:48 42° NE 22:53:45 10° ESE
ERS-1 Rocket 4.3 22:46:32 10° SSW 22:51:12 37° W 22:55:54 10° NNW
ARGOS 3.8 22:46:16 10° S 22:51:32 54° W 22:56:49 10° NNW
SPOT 1/Viking Rocket 3.8 22:46:40 10° S 22:51:52 75° WSW 22:57:07 10° NNW
Cosmos 1825 2.3 22:48:42 10° S 22:52:25 56° E 22:56:09 10° NNE
Cosmos 2084 4.5 22:49:06 10° WNW 22:52:29 30° SW 22:55:55 10° S
Cosmos 724 4.4 22:47:43 10° SW 22:53:55 88° SE 23:00:02 10° NE
Lacrosse 5 rocket 2.9 22:55:54 10° SSE 22:57:39 13° SE 22:59:25 10° E
Aureole 3 2.6 22:55:29 10° SSW 22:58:32 85° WNW 23:01:33 10° N
Cosmos 2227 Rocket 3.8 22:53:44 10° NNW 22:58:35 28° NE 23:03:24 10° E
Cosmos 2219 3.9 22:53:47 10° NNW 22:59:23 49° NE 23:04:57 10° ESE
SL-08 RB Rocket 4.5 22:54:51 10° S 22:59:25 52° W 23:04:00 10° NNW
Helios 1B rocket 4.2 22:55:58 10° N 22:59:45 35° WNW 23:03:30 10° SW
Cosmos 1892 4.2 22:56:08 10° SW 22:59:46 39° WNW 23:03:25 10° N
USA 238 DEB 4.1 22:53:34 10° WSW 23:00:32 75° NW 23:07:38 10° NE
USA 238 4.1 22:53:40 10° WSW 23:00:39 75° NW 23:07:45 10° NE
Spot 4 4.5 22:58:37 10° SE 23:03:14 46° ENE 23:07:52 10° N
PSLV R/B 4.2 23:01:29 11° SE 23:03:47 29° ENE 23:06:16 10° N
H-2A R/B 2.3 23:00:49 11° SE 23:04:44 55° ENE 23:08:47 10° N
Cosmos 1269 Rocket 4.3 23:00:13 10° NNW 23:05:29 66° WSW 23:10:43 10° SSE
Cosmos 2279 Rocket 4.4 23:00:09 10° NNW 23:06:22 65° W 23:12:32 10° S
Cosmos 1408 2.6 23:04:04 10° S 23:07:47 87° E 23:11:34 10° NNE
Aureole 1 4.4 23:09:58 10° SSW 23:13:03 87° WNW 23:16:48 10° NNE
Cosmos 405 Rocket 4.2 23:10:56 10° N 23:14:04 24° ENE 23:17:05 10° ESE
Lacrosse 4 Rocket 1.8 23:09:57 10° NW 23:14:27 64° WSW 23:18:27 13° SSE
NOSS 3-2 (A) 3.6 23:13:06 10° SW 23:19:20 89° NNW 23:26:21 10° NE
CZ-2C R/B 4.3 23:16:02 10° ESE 23:20:28 30° ENE 23:24:45 10° N
Cosmos 1867 3.6 23:15:50 10° NW 23:21:20 86° NE 23:26:26 12° SE
Cosmos 2263 4.3 23:16:14 10° SSW 23:21:53 58° ESE 23:27:30 10° NE
Cosmos 1340 3.7 23:19:51 10° NNW 23:23:28 42° W 23:27:03 10° SSW
Cosmos 1606 4.3 23:20:27 10° NNW 23:23:49 31° W 23:27:11 10° SSW
Cosmos 1125 Rocket 3.5 23:20:19 10° SSW 23:25:31 66° ESE 23:30:44 10° NNE
Meteor 1-27 Rocket 4.2 23:20:14 10° NNW 23:26:02 64° W 23:31:40 10° S
deb Chang Zheng 4 4.3 23:25:31 10° NNE 23:29:40 37° E 23:33:04 14° SSE
Cosmos 372 Rocket 4.0 23:28:07 10° SSW 23:33:11 65° ESE 23:38:16 10° NNE
H-2A R/B 3.3 23:28:33 10° SSW 23:33:35 38° W 23:38:35 10° NNW
CZ-4C R/B 3.8 23:28:05 10° WNW 23:34:06 43° NNE 23:40:58 10° E
Cosmos 1943 Rocket 2.2 23:30:42 10° SSW 23:36:11 60° ESE 23:41:39 10° NE
NOSS 3-2 (C) 3.6 23:31:13 10° SW 23:37:28 88° NW 23:44:30 10° NE
Cosmos 2344 4.0 23:30:20 10° S 23:37:34 47° ESE 23:46:00 10° NE
Cosmos 1346 2.7 23:36:34 10° NNW 23:39:18 78° ENE 23:40:57 21° SSE
Sich 1 Rocket 4.3 23:37:00 15° SSE 23:40:16 39° E 23:44:25 10° NNE
Okean 3 3.4 23:36:21 10° N 23:40:34 82° ENE 23:43:52 16° SSE
Cosmos 2369 Rocket 2.3 23:37:23 10° SW 23:43:04 83° NW 23:48:50 10° NNE
Cosmos 1441 Rocket 4.4 23:41:33 10° N 23:45:09 33° ENE 23:47:55 15° SE
ARGOS Delta rocket 4.3 23:40:44 10° NNE 23:45:11 42° E 23:48:22 17° SSE
Cosmos 1437 2.9 23:46:05 10° NNW 23:49:18 67° WSW 23:51:31 18° S
Cosmos 1782 Rocket 4.5 23:48:43 17° SSE 23:51:33 34° E 23:55:32 10° NNE
ISS -1.7 23:53:30 13° ESE 23:53:30 13° ESE 23:54:07 10° ESE
IGS 5A 4.5 23:49:36 11° SSW 23:53:22 39° W 23:57:19 10° NNW
Cosmos 1733 Rocket 3.2 23:49:18 10° SSW 23:53:36 76° WNW 23:57:59 10° N
DNEPR-1 R/B 3.8 23:49:27 10° SSW 23:54:11 52° SE 23:58:26 10° NE
Cosmos 2297 Rocket 3.2 23:49:00 10° NNW 23:54:25 43° NE 23:59:48 10° ESE
Cosmos 1862 3.9 23:50:52 10° SSW 23:54:47 56° WNW 23:58:45 10° N
